User: anonymous   Login
Location: �perlecques
(50.8057°N, 2.1521°E)
Time: 05:10:15
(UTC+00:00)
Language:

Max Valier Satellite - Orbit

View from above orbital plane
View from above orbital plane
View from above satellite
View from above satellite

Ground track
Ground track

The orbit data is extracted from the following two-line orbital elements,

1 42778U 17036P   24170.64270199  .00578800  15033-3  11397-2 0  9993
2 42778  97.0751 209.1462 0006555 192.0259 168.0865 16.00050737389825
Epoch (UTC): 18 June 2024 15:25:29
Eccentricity: 0.0006555
inclination: 97.0751°
perigee height: 270 km
apogee height: 278 km
right ascension of ascending node: 209.1462°
argument of perigee: 192.0259°
revolutions per day: 16.00050737
mean anomaly at epoch: 168.0865°
orbit number at epoch: 38982

The dashed part of the orbit path shows where the satellite is in the earth's shadow,  

DLR